Zurück zum Katalog

STARLINK-32030

AktivKommunikationVLEO
NORAD 61513·PAYLOAD·🇺🇸 United States

Gestartet Oct 15, 2024 von Cape Canaveral Space Force Station

Loading…

Nächste Überflüge (nächste 24 Stunden)

TLE

AktuellSource: CelesTrak SupGP

Epoche: Sep 15, 2026, 03:30 UTC

1 61513C 24183E   26258.14631944  .00063874  00000+0  18865-2 0  2584
2 61513  53.1585 340.4687 0001071  91.5285  30.8366 15.34369389    14

Verfolge STARLINK-32030 in Echtzeit mit AllMySat

Download on the App Store